Find Starlink 38254

NORAD ID: 100222 Int'l Des: 2026-177 Owner: SPXS Country: US Constellation: starlink operational

当前视图

正在加载3D地球...

About Starlink 38254

Starlink 38254 (NORAD 100222) is a starlink constellation satellite launched Aug 4, 2026 by SPXS of US. with a mass of 575.00 kg.

即将过境

Passes for default location (London). Set your location on the main map for personalized predictions.

高度历史

Loading altitude history...

两行轨道根数

1 A0222U 26177K 26235.62756054 .00100971 00000-0 66927-3 0 9993
2 A0222 97.2839 285.5230 0001067 95.1450 264.9937 15.75210201 4074
Epoch: Aug 23, 2026 • Age: 12 hours

当前状态

高度 364.8 km
远地点 / 近地点 N/A
速度 7.69 km/s
星下点 -52.51°S, 83.31°E
发射日期 Aug 4, 2026
运行时间 19 days
类型 internet

技术详情

分类 Payload
质量 575.00 kg
干质量 530.00 kg
总质量 575.00 kg
长度 0.30 m
直径 4.10 m
跨度 29.00 m
形状 Box + pan
制造商 SPXS
平台类型 Starlink V2MO
阶段状态 In Orbit
所有者/国家 SPXS/US

Most Searched